Starlink 31545

operational
NORAD ID: 59400 Int'l Des: 2024-064 Owner: SPXS Country: US Constellation: starlink
LEOCIRCULAR

关于 Starlink 31545

正在加载描述...

实时位置

正在加载3D地球...

即将过境

高度历史

Altitude vs Time

uPlot chart will show altitude changes over time

两行轨道根数

1 59400U 24064C 25353.49518901 -.00000103 00000-0 58054-5 0 9991
2 59400 43.0035 148.8539 0001806 275.3581 84.7064 15.27587099 96961
Epoch: Dec 19, 2025 • Age: 15 hours

当前状态

高度 493.6 km
速度 7.62 km/s
星下点 -38.99°S, 110.27°W
发射日期 Apr 5, 2024
运行时间 1.7 years
类型 internet

技术详情

分类 Payload
质量 730.00 kg
干质量 700.00 kg
总质量 730.00 kg
长度 0.30 m
直径 4.10 m
跨度 29.00 m
形状 Box + pan
制造商 SPXS
平台类型 Starlink V2M
阶段状态 In Orbit
所有者/国家 SPXS/US

大型星座

Loading constellations...